Satellite: ASTRA 1B
Catalog number: 21139
Epoch time:      103013.00000000
Element set:     157 
Inclination:        0.0122 deg
RA of node:       319.8851 deg
Eccentricity:    0.0002995
Arg of perigee:    65.1991 deg
Mean anomaly:     106.1713 deg
Mean motion:    1.00273184 rev/day
Decay rate:    1.3899E-006 rev/day^2
Epoch rev:            3182
Checksum:              237

Satellite: METEOSAT 5 (MO
Catalog number: 21140
Epoch time:      103019.67109358
Element set:     680 
Inclination:        5.5612 deg
RA of node:        70.1478 deg
Eccentricity:    0.0001041
Arg of perigee:   236.5010 deg
Mean anomaly:     116.5279 deg
Mean motion:    1.00267565 rev/day
Decay rate:    2.6999E-007 rev/day^2
Epoch rev:            4574
Checksum:              284

Satellite: NOAA 12
Catalog number: 21263
Epoch time:      103019.92450600
Element set:     936 
Inclination:       98.6228 deg
RA of node:        10.0596 deg
Eccentricity:    0.0013565
Arg of perigee:   105.8981 deg
Mean anomaly:     254.3694 deg
Mean motion:   14.25060428 rev/day
Decay rate:    4.9899E-006 rev/day^2
Epoch rev:           60699
Checksum:              330

Satellite: OSCAR 22 (UoSA
Catalog number: 21575
Epoch time:      103020.23722011
Element set:     705 
Inclination:       98.1375 deg
RA of node:        13.8434 deg
Eccentricity:    0.0006700
Arg of perigee:   216.4542 deg
Mean anomaly:     143.6190 deg
Mean motion:   14.39133941 rev/day
Decay rate:    5.0100E-006 rev/day^2
Epoch rev:           60406
Checksum:              256

Satellite: METEOR 3-5
Catalog number: 21655
Epoch time:      103018.22201542
Element set:     492 
Inclination:       82.5559 deg
RA of node:        61.0167 deg
Eccentricity:    0.0012467
Arg of perigee:   279.0573 deg
Mean anomaly:      80.9139 deg
Mean motion:   13.16978634 rev/day
Decay rate:    5.1000E-007 rev/day^2
Epoch rev:           54935
Checksum:              306

Satellite: UARS
Catalog number: 21701
Epoch time:      103020.42739370
Element set:     804 
Inclination:       56.9790 deg
RA of node:       149.9943 deg
Eccentricity:    0.0005947
Arg of perigee:   117.2526 deg
Mean anomaly:     242.9059 deg
Mean motion:   15.02796911 rev/day
Decay rate:    1.3410E-005 rev/day^2
Epoch rev:           62133
Checksum:              298

Satellite: EUTELSAT 2-F3
Catalog number: 21803
Epoch time:      103018.86505557
Element set:     510 
Inclination:        2.5220 deg
RA of node:        89.4889 deg
Eccentricity:    0.0002831
Arg of perigee:   229.7037 deg
Mean anomaly:     131.6203 deg
Mean motion:    1.00278675 rev/day
Decay rate:    1.3899E-006 rev/day^2
Epoch rev:            3669
Checksum:              301

Satellite: INMARSAT 2-F3
Catalog number: 21814
Epoch time:      103020.14726326
Element set:     603 
Inclination:        1.6866 deg
RA of node:        56.9816 deg
Eccentricity:    0.0002466
Arg of perigee:   249.6518 deg
Mean anomaly:      83.4852 deg
Mean motion:    1.00275467 rev/day
Decay rate:    1.1900E-006 rev/day^2
Epoch rev:            4059
Checksum:              288

Satellite: INMARSAT 2-F4
Catalog number: 21940
Epoch time:      103019.20204642
Element set:     564 
Inclination:        2.3796 deg
RA of node:        17.7929 deg
Eccentricity:    0.0001952
Arg of perigee:   236.3660 deg
Mean anomaly:      45.7154 deg
Mean motion:    1.00267536 rev/day
Decay rate:   -3.4300E-006 rev/day^2
Epoch rev:            3937
Checksum:              280

Satellite: EUTELSAT 2-F4
Catalog number: 22028
Epoch time:      103019.89218966
Element set:     318 
Inclination:        1.6451 deg
RA of node:        92.9866 deg
Eccentricity:    0.0006146
Arg of perigee:   211.5864 deg
Mean anomaly:     123.1620 deg
Mean motion:    1.00272398 rev/day
Decay rate:   -9.1999E-007 rev/day^2
Epoch rev:            3147
Checksum:              313

Satellite: OSCAR 23 (KITS
Catalog number: 22077
Epoch time:      103019.16986830
Element set:     148 
Inclination:       66.0835 deg
RA of node:       189.3884 deg
Eccentricity:    0.0014939
Arg of perigee:   280.7036 deg
Mean anomaly:      79.2301 deg
Mean motion:   12.86407797 rev/day
Decay rate:   -3.7000E-007 rev/day^2
Epoch rev:           49039
Checksum:              336

Satellite: ASTRA 1C
Catalog number: 22653
Epoch time:      103013.00000000
Element set:     783 
Inclination:        0.0122 deg
RA of node:       319.8851 deg
Eccentricity:    0.0002995
Arg of perigee:    65.1991 deg
Mean anomaly:     106.1253 deg
Mean motion:    1.00273184 rev/day
Decay rate:    1.3899E-006 rev/day^2
Epoch rev:            3052
Checksum:              239

Satellite: METEOR 2-21
Catalog number: 22782
Epoch time:      103019.81131939
Element set:     496 
Inclination:       82.5472 deg
RA of node:       238.4970 deg
Eccentricity:    0.0023690
Arg of perigee:    70.6649 deg
Mean anomaly:     289.7069 deg
Mean motion:   13.83530380 rev/day
Decay rate:    1.7099E-006 rev/day^2
Epoch rev:           47397
Checksum:              352

Satellite: KITSAT B
Catalog number: 22825
Epoch time:      103020.20312994
Element set:     466 
Inclination:       98.2778 deg
RA of node:        51.3938 deg
Eccentricity:    0.0008651
Arg of perigee:   353.3048 deg
Mean anomaly:       6.8017 deg
Mean motion:   14.28932512 rev/day
Decay rate:    2.3099E-006 rev/day^2
Epoch rev:           48568
Checksum:              314

Satellite: POSAT 1
Catalog number: 22826
Epoch time:      103016.59736716
Element set:     296 
Inclination:       98.2785 deg
RA of node:        49.0703 deg
Eccentricity:    0.0009467
Arg of perigee:     1.8937 deg
Mean anomaly:     358.2279 deg
Mean motion:   14.29152235 rev/day
Decay rate:    2.2399E-006 rev/day^2
Epoch rev:           48521
Checksum:              338

Satellite: ITAMSAT
Catalog number: 22828
Epoch time:      103019.52536878
Element set:     405 
Inclination:       98.2747 deg
RA of node:        52.1156 deg
Eccentricity:    0.0010091
Arg of perigee:   332.6883 deg
Mean anomaly:      27.3775 deg
Mean motion:   14.29497930 rev/day
Decay rate:    2.2399E-006 rev/day^2
Epoch rev:           45383
Checksum:              330

Satellite: EYESAT A
Catalog number: 22829
Epoch time:      103019.53996586
Element set:     429 
Inclination:       98.2767 deg
RA of node:        52.7194 deg
Eccentricity:    0.0009841
Arg of perigee:   333.3565 deg
Mean anomaly:      26.7119 deg
Mean motion:   14.29752675 rev/day
Decay rate:    3.5200E-006 rev/day^2
Epoch rev:           48576
Checksum:              455

Satellite: METEOSAT 6
Catalog number: 22912
Epoch time:      103018.87520258
Element set:     642 
Inclination:        2.6056 deg
RA of node:        82.5669 deg
Eccentricity:    0.0000870
Arg of perigee:   251.1131 deg
Mean anomaly:     108.5338 deg
Mean motion:    1.00273361 rev/day
Decay rate:    7.0999E-007 rev/day^2
Epoch rev:            3198
Checksum:              415

Satellite: GOES 8
Catalog number: 23051
Epoch time:      103019.30873145
Element set:     566 
Inclination:        0.2260 deg
RA of node:       105.7792 deg
Eccentricity:    0.0002373
Arg of perigee:   196.4704 deg
Mean anomaly:     211.5417 deg
Mean motion:    1.00258108 rev/day
Decay rate:   -2.3600E-006 rev/day^2
Epoch rev:            3950
Checksum:              257

Satellite: ASTRA 1D
Catalog number: 23331
Epoch time:      103017.04980904
Element set:     803 
Inclination:        0.0478 deg
RA of node:       216.7253 deg
Eccentricity:    0.0002038
Arg of perigee:   134.0468 deg
Mean anomaly:     167.3539 deg
Mean motion:    1.00272577 rev/day
Decay rate:    1.5499E-006 rev/day^2
Epoch rev:            3054
Checksum:              273

Satellite: RADIO ROSTO
Catalog number: 23439
Epoch time:      103018.16267362
Element set:     676 
Inclination:       64.8160 deg
RA of node:        92.2698 deg
Eccentricity:    0.0147649
Arg of perigee:   121.3252 deg
Mean anomaly:     240.2220 deg
Mean motion:   11.27547996 rev/day
Decay rate:   -4.1999E-007 rev/day^2
Epoch rev:           33205
Checksum:              316

Satellite: NOAA 14
Catalog number: 23455
Epoch time:      103019.95227923
Element set:     491 
Inclination:       99.1878 deg
RA of node:        37.7403 deg
Eccentricity:    0.0008844
Arg of perigee:   316.1579 deg
Mean anomaly:      43.8900 deg
Mean motion:   14.13286010 rev/day
Decay rate:    2.3499E-006 rev/day^2
Epoch rev:           41529
Checksum:              432

Satellite: HIMAWARI 5 (GM
Catalog number: 23522
Epoch time:      103019.13698473
Element set:     62 
Inclination:        1.6788 deg
RA of node:        83.0456 deg
Eccentricity:    0.0000719
Arg of perigee:    99.0990 deg
Mean anomaly:     125.4693 deg
Mean motion:    1.00268140 rev/day
Decay rate:   -2.7099E-006 rev/day^2
Epoch rev:            2858
Checksum:              314

Satellite: HOT BIRD 1
Catalog number: 23537
Epoch time:      103013.80550721
Element set:     533 
Inclination:        0.0070 deg
RA of node:       236.2796 deg
Eccentricity:    0.0008090
Arg of perigee:    86.9786 deg
Mean anomaly:      92.5958 deg
Mean motion:    1.00275871 rev/day
Decay rate:    1.0700E-006 rev/day^2
Epoch rev:            2861
Checksum:              279

Satellite: GOES 9
Catalog number: 23581
Epoch time:      103017.41178810
Element set:     477 
Inclination:        0.3599 deg
RA of node:       278.0713 deg
Eccentricity:    0.0007570
Arg of perigee:   223.9498 deg
Mean anomaly:     351.8607 deg
Mean motion:    1.00034711 rev/day
Decay rate:    1.0600E-006 rev/day^2
Epoch rev:            2804
Checksum:              281

